User: anonymous   Login
Location: Strohbehn Observatory
(42.4649°N, 93.8239°W)
Time: 23:55:06
(UTC-06:00)
Language:

SL-16 R/B - Orbit

View from above orbital plane
View from above orbital plane
View from above satellite
View from above satellite

Ground track
Ground track

The orbit data is extracted from the following two-line orbital elements,

1 31793U 07029B   15063.75363692  .00000340  00000-0  20270-3 0  9998
2 31793 070.9778 343.9097 0002302 272.8553 136.1341 14.14313773396592
Epoch (UTC): 04 March 2015 18:05:14
Eccentricity: 0.0002302
inclination: 70.9778°
perigee height: 843 km
apogee height: 846 km
right ascension of ascending node: 343.9097°
argument of perigee: 272.8553°
revolutions per day: 14.14313773
mean anomaly at epoch: 136.1341°
orbit number at epoch: 39659

The dashed part of the orbit path shows where the satellite is in the earth's shadow,  

DLR